Hourly Data Report for May 05, 2017

ATIKOKAN (AUT)
ONTARIO

48°45'40.000" N
91°37'41.000" W
389.30 m
6020LPQ
71747
WCH

Download Data

Hourly Data (May 2017)
Hourly Data Report for May 5, 2017
TIME
LST
Temp Definition
°C
Dew Point Definition
°C
Rel Hum Definition
%
Precip. Amount Definition
mm

Wind Dir Definition
10's deg

Wind Spd Definition
km/h
Visibility Definition
km
Stn Press Definition
kPa
Hmdx Definition


Wind Chill Definition


Weather Definition


00:00 1.0 0.5 96 0.0   0   97.11     LegendNANA
01:00 0.5 0.1 97 0.0   0   97.05     LegendNANA
02:00 -0.1 -0.5 98 0.0 6 2   96.97   -1 LegendNANA
03:00 -0.2 -0.6 98 0.0   0   96.95     LegendNANA
04:00 -0.8 -1.1 98 0.0 5 3   96.91   -2 LegendNANA
05:00 -0.1 -0.3 98 0.0 0 1   96.93   0 LegendNANA
06:00 1.7 1.5 98 0.0 5 3   96.96     LegendNANA
07:00 3.4 3.1 97 0.0 8 4   96.95     LegendNANA
08:00 5.1 3.4 89 0.0 13 4   96.83     LegendNANA
09:00 7.0 3.6 79 0.0 17 8   96.72     LegendNANA
10:00 7.2 3.7 78 0.0 16 10   96.61     LegendNANA
11:00 8.2 4.7 78 0.0 17 13   96.48     LegendNANA
12:00 10.9 5.0 67 0.0 21 7   96.50     LegendNANA
13:00 14.1 5.2 55 0.0 10 5   96.50     LegendNANA
14:00 14.8 4.5 50 0.0 11 2   96.46     LegendNANA
15:00 16.6 3.3 41 0.0 6 6   96.39     LegendNANA
16:00 15.8 3.6 44 0.0 5 4   96.38     LegendNANA
17:00 14.1 4.8 54 0.3 8 16   96.47     LegendNANA
18:00 12.5 4.8 59 0.0 10 10   96.51     LegendNANA
19:00 11.0 3.9 61 0.0 13 4   96.53     LegendNANA
20:00 6.9 3.9 81 0.0 7 2   96.58     LegendNANA
21:00 4.5 3.1 90 0.0   0   96.61     LegendNANA
22:00 3.1 2.1 93 0.0   0   96.63     LegendNANA
23:00 2.2 1.5 95 0.0   0   96.67     LegendNANA

Notes on Data Quality.

Legend

  • E = Estimated
  • M = Missing
  • NA = Not Available*
  • [empty] = Indicates an unobserved value
Date modified: